Weather History for KCDR - September, 2013

Change the Weather History Date:

Friday, September 20, 2013

  Actual Average Record
Temperature  
Mean Temperature 55 °F 59 °F  
Max Temperature 77 °F 76 °F 99 °F (1956)
Min Temperature 32 °F 42 °F 26 °F (1983)
Degree Days  
Heating Degree Days 10 7  
Month to date heating degree days 32 87  
Since 1 July heating degree days 32 117  
Cooling Degree Days 0 1  
Month to date cooling degree days 139 55  
Year to date cooling degree days 907 702  
Growing Degree Days 4 (Base 50)    
Moisture  
Dew Point 34 °F    
Average Humidity 57    
Maximum Humidity 92    
Minimum Humidity 21    
Precipitation  
Precipitation 0.00 in 0.05 in 1.88 in (1971)
Month to date precipitation 0.67 1.18  
Year to date precipitation 13.03 15.05  
Sea Level Pressure  
Sea Level Pressure 30.09 in    
Wind  
Wind Speed 2 mph (SE)    
Max Wind Speed 9 mph    
Max Gust Speed 13 mph    
Visibility 10 miles    
Events      
T = Trace of Precipitation, MM = Missing Value Source: NWS Daily Summary

Daily Weather History Graph

Daily Weather History Graph

Search for Another Location

Airport or City:

Trip Planner

Search our weather history database for the weather conditions in past years. The results will help you decide how hot, cold, wet, or windy it might be!

Date:

Astronomy

Sep. 20, 2013 Rise Set
Actual Time 6:37 AM MDT 6:52 PM MDT
Civil Twilight 6:09 AM MDT 7:20 PM MDT
Nautical Twilight 5:36 AM MDT 7:54 PM MDT
Astronomical Twilight 5:02 AM MDT 8:28 PM MDT
Moon 7:24 PM MDT (9/20) 7:57 AM MDT (9/20)
Length of Visible Light 13h 11m
Length of Day
12h 14m
Full, 98% of the Moon is Illuminated
Sep 20
Full
Sep 26
Last Quarter
Oct 4
New
Oct 11
First Quarter
Oct 18
Full

Hourly Weather History & Observations

Time (MDT) Temp. Windchill Dew Point Humidity Pressure Visibility Wind Dir Wind Speed Gust Speed Precip Events Conditions
12:53 AM 39.9 °F - 34.0 °F 79% 30.19 in 10.0 mi Calm Calm - N/A   Clear
1:53 AM 37.9 °F 35.5 °F 34.0 °F 86% 30.20 in 10.0 mi West 3.5 mph - N/A   Clear
2:53 AM 35.1 °F - 32.0 °F 89% 30.20 in 10.0 mi Calm Calm - N/A   Clear
3:53 AM 36.0 °F 32.1 °F 33.1 °F 89% 30.19 in 10.0 mi SSW 4.6 mph - N/A   Clear
4:53 AM 35.1 °F - 32.0 °F 89% 30.18 in 10.0 mi Calm Calm - N/A   Clear
5:53 AM 34.0 °F - 30.0 °F 85% 30.19 in 10.0 mi Calm Calm - N/A   Clear
6:53 AM 34.0 °F - 30.9 °F 89% 30.22 in 10.0 mi Calm Calm - N/A   Clear
7:53 AM 42.1 °F - 37.0 °F 82% 30.21 in 10.0 mi Calm Calm - N/A   Clear
8:53 AM 52.0 °F - 39.0 °F 61% 30.18 in 10.0 mi Calm Calm - N/A   Clear
9:53 AM 57.9 °F - 39.9 °F 51% 30.17 in 10.0 mi Calm Calm - N/A   Clear
10:53 AM 64.0 °F - 37.9 °F 38% 30.14 in 10.0 mi Calm Calm - N/A   Clear
11:53 AM 66.9 °F - 37.0 °F 33% 30.11 in 10.0 mi Calm Calm - N/A   Clear
12:53 PM 70.0 °F - 37.0 °F 30% 30.08 in 10.0 mi Calm Calm - N/A   Clear
1:53 PM 72.0 °F - 35.1 °F 26% 30.05 in 10.0 mi Variable 6.9 mph - N/A   Clear
2:53 PM 73.9 °F - 35.1 °F 24% 30.02 in 10.0 mi NNE 4.6 mph - N/A   Clear
3:53 PM 75.9 °F - 34.0 °F 22% 29.99 in 10.0 mi Calm Calm - N/A   Clear
4:53 PM 75.9 °F - 33.1 °F 21% 29.98 in 10.0 mi Calm Calm - N/A   Clear
5:53 PM 75.9 °F - 33.1 °F 21% 29.97 in 10.0 mi NE 3.5 mph - N/A   Clear
6:53 PM 66.9 °F - 34.0 °F 30% 29.98 in 10.0 mi East 8.1 mph - N/A   Clear
7:53 PM 57.9 °F - 33.1 °F 39% 29.99 in 10.0 mi SE 4.6 mph - N/A   Clear
8:53 PM 55.0 °F - 32.0 °F 42% 29.98 in 10.0 mi SE 4.6 mph - N/A   Clear
9:53 PM 51.1 °F - 30.9 °F 46% 29.98 in 10.0 mi SE 6.9 mph - N/A   Clear
10:53 PM 46.9 °F - 30.9 °F 54% 29.97 in 10.0 mi WSW 3.5 mph - N/A   Clear
11:53 PM 43.0 °F - 32.0 °F 65% 29.96 in 10.0 mi Calm Calm - N/A   Clear